Des Moines, IA

5:36 PM CST on February 05, 2016 (GMT -0600)
Des Moines International

Weather History for KDSM - June, 2012

Change the Weather History Date:

Saturday, June 23, 2012

  Actual Average Record
Temperature  
Mean Temperature 71 °F 74 °F  
Max Temperature 74 °F 84 °F 103 °F (1934)
Min Temperature 67 °F 64 °F 49 °F (1958)
Degree Days  
Heating Degree Days 0 0  
Month to date heating degree days 6 14  
Since 1 June heating degree days 6 14  
Since 1 July heating degree days 4697 6199  
Cooling Degree Days 6 9  
Month to date cooling degree days 222 150  
Year to date cooling degree days 430 226  
Since 1 June cooling degree days 222 150  
Growing Degree Days 20 (Base 50)    
Moisture  
Dew Point 61 °F    
Average Humidity 73    
Maximum Humidity 84    
Minimum Humidity 61    
Precipitation  
Precipitation 0.17 in 0.16 in 1.66 in (2000)
Month to date precipitation 1.90 3.79  
Year to date precipitation 14.88 16.97  
Snow  
Snow 0.00 in 0.00 in - ()
Month to date snowfall 0.0 0.0  
Since 1 June snowfall 0.0 0.0  
Since 1 July snowfall 20.9 35.3  
Snow Depth 0.00 in    
Sea Level Pressure  
Sea Level Pressure 29.93 in    
Wind  
Wind Speed 8 mph (SSE)    
Max Wind Speed 22 mph    
Max Gust Speed 26 mph    
Visibility 10 miles    
Events Rain , Thunderstorm    
T = Trace of Precipitation, MM = Missing Value Source: NWS Daily Summary

Daily Weather History Graph

Daily Weather History Graph

Search for Another Location

Airport or City:

Trip Planner

Search our weather history database for the weather conditions in past years. The results will help you decide how hot, cold, wet, or windy it might be!

Date:

Astronomy

Jun. 23, 2012 Rise Set
Actual Time 5:41 AM CDT 8:52 PM CDT
Civil Twilight 5:07 AM CDT 9:26 PM CDT
Nautical Twilight 4:23 AM CDT 10:10 PM CDT
Astronomical Twilight 3:31 AM CDT 11:02 PM CDT
Moon 9:47 AM CDT (6/23) 11:17 PM CDT (6/23)
Length of Visible Light 16h 19m
Length of Day
15h 11m
Waxing Crescent, 16% of the Moon is Illuminated
Jun 23
Waxing Crescent
Jun 26
First Quarter
Jul 3
Full
Jul 10
Last Quarter
Jul 18
New

Hourly Weather History & Observations

Time (CDT) Temp. Dew Point Humidity Pressure Visibility Wind Dir Wind Speed Gust Speed Precip Events Conditions
12:54 AM 70.0 °F 57.9 °F 65% 29.96 in 10.0 mi SSE 5.8 mph - N/A   Partly Cloudy
1:54 AM 70.0 °F 57.0 °F 63% 29.94 in 10.0 mi SSE 5.8 mph - N/A   Mostly Cloudy
2:54 AM 70.0 °F 55.9 °F 61% 29.94 in 10.0 mi SE 8.1 mph - N/A   Overcast
3:54 AM 69.1 °F 55.9 °F 63% 29.92 in 10.0 mi SSE 8.1 mph - N/A   Overcast
4:54 AM 68.0 °F 55.9 °F 65% 29.93 in 10.0 mi SSE 6.9 mph - N/A   Overcast
5:54 AM 68.0 °F 55.9 °F 65% 29.97 in 10.0 mi South 4.6 mph - N/A   Overcast
6:54 AM 68.0 °F 57.0 °F 68% 29.95 in 10.0 mi SE 8.1 mph - N/A   Overcast
7:54 AM 68.0 °F 57.0 °F 68% 29.96 in 10.0 mi SSE 5.8 mph - N/A   Overcast
8:54 AM 69.1 °F 57.9 °F 68% 29.95 in 10.0 mi South 5.8 mph - N/A   Overcast
9:54 AM 70.0 °F 57.9 °F 65% 29.96 in 10.0 mi South 5.8 mph - N/A   Overcast
10:54 AM 69.1 °F 61.0 °F 75% 29.92 in 10.0 mi SE 10.4 mph - 0.01 in Rain Light Rain
11:54 AM 72.0 °F 60.1 °F 66% 29.90 in 10.0 mi Variable 3.5 mph - 0.00 in   Overcast
12:54 PM 72.0 °F 60.1 °F 66% 29.93 in 10.0 mi South 6.9 mph - N/A   Overcast
1:54 PM 73.0 °F 61.0 °F 66% 29.92 in 10.0 mi South 8.1 mph - 0.00 in   Overcast
2:54 PM 73.0 °F 62.1 °F 68% 29.93 in 10.0 mi South 4.6 mph - N/A   Overcast
3:33 PM 73.4 °F 62.6 °F 69% 29.94 in 10.0 mi South 3.5 mph - 0.00 in Rain , Thunderstorm Light Thunderstorms and Rain
3:54 PM 72.0 °F 64.0 °F 76% 29.94 in 7.0 mi South 6.9 mph - 0.00 in Rain , Thunderstorm Light Thunderstorms and Rain
4:37 PM 69.8 °F 64.4 °F 83% 29.93 in 1.8 mi SE 11.5 mph - 0.09 in Rain , Thunderstorm Heavy Thunderstorms and Rain
4:46 PM 68.0 °F 64.4 °F 88% 29.93 in 5.0 mi ESE 10.4 mph 18.4 mph 0.16 in Rain , Thunderstorm Light Thunderstorms and Rain
4:54 PM 69.1 °F 64.0 °F 84% 29.89 in 9.0 mi ESE 12.7 mph - 0.16 in Rain , Thunderstorm Light Thunderstorms and Rain
5:18 PM 69.8 °F 64.4 °F 83% 29.93 in 10.0 mi SE 9.2 mph - 0.00 in   Overcast
5:54 PM 69.1 °F 64.9 °F 87% 29.90 in 10.0 mi SE 10.4 mph - 0.00 in   Overcast
6:54 PM 69.1 °F 64.9 °F 87% 29.92 in 10.0 mi SSE 11.5 mph - 0.00 in   Overcast
7:54 PM 70.0 °F 64.9 °F 84% 29.91 in 10.0 mi ESE 6.9 mph - 0.00 in Rain Light Rain
8:54 PM 70.0 °F 66.0 °F 87% 29.91 in 10.0 mi SE 12.7 mph - 0.00 in   Overcast
9:54 PM 70.0 °F 64.9 °F 84% 29.91 in 10.0 mi SE 11.5 mph 18.4 mph N/A   Mostly Cloudy
10:54 PM 71.1 °F 64.9 °F 81% 29.93 in 10.0 mi East 4.6 mph - N/A   Mostly Cloudy
11:39 PM 71.6 °F 64.4 °F 78% 29.94 in 10.0 mi SE 13.8 mph 21.9 mph N/A   Scattered Clouds
11:54 PM 71.1 °F 64.0 °F 78% 29.94 in 10.0 mi SE 5.8 mph - N/A   Mostly Cloudy